Regional Weather Roundup
Issued by NWS

Home | Current Version | Previous Version | Graphics & Text | Print | Product List | Glossary On
Versions: 1 2 3 4 5 6 7 8 9 10 11 12 13 14 15 16 17 18 19 20 21 22 23 24 25 26 27 28 29 30 31 32 33 34 35 36 37 38 39 40 41 42 43 44 45 46 47 48 49 50
000
ASUS43 KFSD 291502
RWRSD

WEATHER ROUNDUP FOR SOUTH DAKOTA
NATIONAL WEATHER SERVICE SIOUX FALLS SD
1000 AM CDT FRI APR 29 2016

NOTE: "FAIR" INDICATES FEW OR NO CLOUDS BELOW 12,000 FEET WITH NO
SIGNIFICANT WEATHER AND/OR OBSTRUCTIONS TO VISIBILITY.


SDZ001>005-009-010-012>017-291600-
NORTHWEST AND NORTH CENTRAL SOUTH DAKOTA

CITY           SKY/WX    TMP DP  RH WIND       PRES   REMARKS
BUFFALO          N/A     41  35  79 CALM      30.05F
FAITH            N/A     39  34  82 NE8       30.11F
MOBRIDGE       CLOUDY    51  42  71 N6        30.12F
$$

SDZ012>016-024>037-041>051-057-063-072>074-291600-
SOUTHWEST AND SOUTH CENTRAL SOUTH DAKOTA

CITY           SKY/WX    TMP DP  RH WIND       PRES   REMARKS
RAPID CTY ARPT CLOUDY    38  35  89 E6        30.10S
PIERRE         PTSUNNY   46  37  71 E9        30.12F
CUSTER         CLOUDY    33  29  85 E12G18    30.03R WCI  24
ELLSWORTH AFB  CLOUDY    37  37 100 NE6       30.09S
PHILIP         CLOUDY    43  37  79 E12       30.11F
PINE RIDGE     CLOUDY    39  33  79 CALM      30.07F
WINNER         CLOUDY    41  36  82 E10       30.11S
$$

SDZ004>011-016>023-039-040-291600-
NORTHEAST SOUTH DAKOTA

CITY           SKY/WX    TMP DP  RH WIND       PRES   REMARKS
ABERDEEN       CLOUDY    48  38  68 VRB3      30.17F
WATERTOWN      PTSUNNY   47  38  71 NE7       30.15S
BROOKINGS        N/A     41  37  86 MISG      30.13F
SISSETON         N/A     50  37  61 N7        30.16F
$$

SDZ017-020-022-023-036>040-048>070-291600-
SOUTHEAST SOUTH DAKOTA

CITY           SKY/WX    TMP DP  RH WIND       PRES   REMARKS
SIOUX FALLS    CLOUDY    42  36  79 NE17      30.11F
HURON          PTSUNNY   45  38  76 NE10      30.15S
MITCHELL       CLOUDY    42  38  85 NE13      30.14F
YANKTON        CLOUDY    43  37  81 NE12      30.09F
$$

ABBREVIATIONS USED IN REMARKS
   TC - TEMPERATURE IN CELSIUS
  WCI - WIND CHILL INDEX
   HX - HEAT INDEX
  VSB - VISIBILITY





USA.gov is the U.S. government's official web portal to all federal, state and local government web resources and services.